SAS616 LEBB-EGHI

Flight info

Callsign SAS616
Flight time 1h 20m
Altitude 40000
Route MAPAX N867 NENEM DCT YURZI UL14 TEPRA UN867 TERPO UP87 GODAN UN862 UPALO UP87 ROXOG DCT THRED
Aircraft B736/M-SDE2E3FGHIRWXY/LB1

Departure

Time 2026-04-27 18:52
Airport Bilbao Airport (LEBB)

Arrival

Time 2026-04-27 20:13
Airport Southampton Airport (EGHI)
Time Latitude Longitude Altitude Speed Heading
2026-04-27 18:37 43.30410 -2.90576 160 ft 0 kts 26°
2026-04-27 18:43 43.30409 -2.90576 160 ft 0 kts 26°
2026-04-27 18:44 43.30398 -2.90584 160 ft 2 kts 26°
2026-04-27 18:44 43.30385 -2.90593 159 ft 2 kts 26°
2026-04-27 18:44 43.30371 -2.90602 159 ft 2 kts 26°
2026-04-27 18:44 43.30363 -2.90608 159 ft 1 kts 27°
2026-04-27 18:45 43.30349 -2.90613 158 ft 2 kts 357°
2026-04-27 18:45 43.30334 -2.90609 158 ft 1 kts 334°
2026-04-27 18:45 43.30328 -2.90605 158 ft 1 kts 323°
2026-04-27 18:45 43.30326 -2.90602 158 ft 0 kts 326°
2026-04-27 18:48 43.30345 -2.90635 158 ft 10 kts 299°
2026-04-27 18:48 43.30387 -2.90744 159 ft 12 kts 297°
2026-04-27 18:48 43.30406 -2.90856 159 ft 12 kts 266°
2026-04-27 18:48 43.30394 -2.90977 157 ft 13 kts 227°
2026-04-27 18:49 43.30312 -2.91040 154 ft 11 kts 230°
2026-04-27 18:49 43.30331 -2.91158 152 ft 18 kts 297°
2026-04-27 18:49 43.30398 -2.91342 151 ft 22 kts 295°
2026-04-27 18:49 43.30468 -2.91533 149 ft 22 kts 297°
2026-04-27 18:50 43.30543 -2.91733 146 ft 23 kts 295°
2026-04-27 18:50 43.30617 -2.91935 142 ft 21 kts 296°
2026-04-27 18:50 43.30685 -2.92120 138 ft 22 kts 296°
2026-04-27 18:50 43.30757 -2.92319 132 ft 19 kts 297°
2026-04-27 18:51 43.30801 -2.92467 127 ft 10 kts 258°
2026-04-27 18:51 43.30745 -2.92503 127 ft 10 kts 161°
2026-04-27 18:51 43.30679 -2.92472 127 ft 9 kts 161°
2026-04-27 18:51 43.30621 -2.92439 128 ft 8 kts 137°
2026-04-27 18:52 43.30516 -2.92166 135 ft 77 kts 116°
2026-04-27 18:52 43.30147 -2.91161 158 ft 154 kts 115°
2026-04-27 18:52 43.29646 -2.89825 916 ft 162 kts 116°
2026-04-27 18:53 43.28554 -2.86802 2230 ft 193 kts 114°
2026-04-27 18:53 43.27941 -2.85118 2860 ft 208 kts 115°
2026-04-27 18:53 43.27271 -2.83300 3525 ft 221 kts 115°
2026-04-27 18:53 43.26562 -2.81378 4164 ft 236 kts 115°
2026-04-27 18:54 43.25799 -2.79307 4815 ft 250 kts 115°
2026-04-27 18:54 43.25001 -2.77135 5444 ft 265 kts 116°
2026-04-27 18:54 43.24320 -2.74787 6311 ft 268 kts 99°
2026-04-27 18:54 43.24506 -2.72309 7120 ft 273 kts 67°
2026-04-27 18:55 43.25704 -2.70306 7897 ft 280 kts 34°
2026-04-27 18:55 43.27539 -2.69438 8679 ft 287 kts
2026-04-27 18:55 43.29563 -2.69403 9449 ft 293 kts 353°
2026-04-27 18:55 43.31522 -2.70133 10246 ft 296 kts 338°
2026-04-27 18:56 43.33408 -2.71293 10767 ft 309 kts 333°
2026-04-27 18:56 43.35395 -2.72614 11258 ft 324 kts 333°
2026-04-27 18:56 43.37487 -2.73969 11771 ft 338 kts 334°
2026-04-27 18:56 43.39643 -2.75306 12549 ft 342 kts 335°
2026-04-27 18:57 43.41813 -2.76617 13413 ft 345 kts 335°
2026-04-27 18:57 43.44003 -2.77927 14215 ft 349 kts 335°
2026-04-27 18:57 43.46242 -2.79266 14993 ft 353 kts 334°
2026-04-27 18:57 43.48487 -2.80611 15746 ft 358 kts 334°
2026-04-27 18:58 43.50782 -2.81989 16518 ft 363 kts 334°
2026-04-27 18:58 43.52332 -2.82921 17022 ft 366 kts 334°
2026-04-27 18:58 43.55456 -2.84802 17985 ft 372 kts 334°
2026-04-27 18:58 43.57834 -2.86236 18686 ft 377 kts 334°
2026-04-27 18:59 43.60245 -2.87691 19407 ft 382 kts 334°
2026-04-27 18:59 43.62690 -2.89167 20102 ft 386 kts 334°
2026-04-27 18:59 43.65161 -2.90661 20766 ft 391 kts 334°
2026-04-27 18:59 43.67662 -2.92173 21421 ft 396 kts 334°
2026-04-27 19:00 43.70177 -2.93696 22048 ft 401 kts 333°
2026-04-27 19:00 43.72737 -2.95247 22686 ft 405 kts 333°
2026-04-27 19:00 43.75341 -2.96829 23297 ft 410 kts 333°
2026-04-27 19:00 43.77927 -2.98402 23912 ft 414 kts 333°
2026-04-27 19:01 43.80597 -3.00027 24524 ft 418 kts 333°
2026-04-27 19:01 43.83236 -3.01634 25114 ft 422 kts 333°
2026-04-27 19:01 43.85950 -3.03288 25718 ft 425 kts 333°
2026-04-27 19:01 43.88656 -3.04937 26301 ft 428 kts 333°
2026-04-27 19:02 43.91379 -3.06600 26834 ft 431 kts 333°
2026-04-27 19:02 43.94130 -3.08281 27374 ft 435 kts 333°
2026-04-27 19:02 43.96890 -3.09968 27914 ft 437 kts 333°
2026-04-27 19:02 43.99679 -3.11643 28448 ft 441 kts 334°
2026-04-27 19:03 44.02576 -3.13070 28982 ft 446 kts 340°
2026-04-27 19:03 44.05626 -3.13943 29431 ft 454 kts 350°
2026-04-27 19:03 44.08798 -3.14116 29877 ft 462 kts 360°
2026-04-27 19:03 44.10971 -3.13837 30184 ft 466 kts
2026-04-27 19:04 44.15199 -3.12717 30804 ft 471 kts 11°
2026-04-27 19:04 44.18391 -3.11641 31243 ft 475 kts 11°
2026-04-27 19:04 44.21621 -3.10503 31806 ft 474 kts 11°
2026-04-27 19:04 44.24837 -3.09370 32632 ft 468 kts 11°
2026-04-27 19:05 44.27972 -3.08286 33316 ft 463 kts 10°
2026-04-27 19:05 44.31093 -3.07233 33820 ft 463 kts
2026-04-27 19:05 44.34240 -3.06197 34325 ft 462 kts
2026-04-27 19:05 44.37393 -3.05179 34825 ft 460 kts
2026-04-27 19:06 44.40509 -3.04186 35269 ft 458 kts
2026-04-27 19:06 44.43659 -3.03192 35664 ft 457 kts
2026-04-27 19:06 44.46763 -3.02220 36041 ft 457 kts
2026-04-27 19:06 44.49892 -3.01244 36389 ft 457 kts
2026-04-27 19:07 44.52970 -3.00286 36864 ft 455 kts
2026-04-27 19:07 44.56049 -2.99326 37373 ft 453 kts
2026-04-27 19:07 44.59127 -2.98366 37794 ft 453 kts
2026-04-27 19:07 44.62236 -2.97398 38176 ft 452 kts
2026-04-27 19:08 44.65293 -2.96445 38525 ft 452 kts
2026-04-27 19:08 44.68339 -2.95493 38863 ft 451 kts
2026-04-27 19:08 44.71405 -2.94534 39170 ft 450 kts
2026-04-27 19:08 44.74448 -2.93582 39378 ft 452 kts
2026-04-27 19:09 44.77490 -2.92628 39668 ft 450 kts
2026-04-27 19:09 44.80575 -2.91659 39868 ft 450 kts
2026-04-27 19:09 44.83612 -2.90705 40044 ft 450 kts
2026-04-27 19:10 44.89717 -2.88784 40050 ft 450 kts
2026-04-27 19:10 44.95794 -2.86868 40067 ft 450 kts
2026-04-27 19:11 45.01906 -2.84937 40065 ft 451 kts
2026-04-27 19:11 45.08024 -2.82999 40060 ft 449 kts 10°
2026-04-27 19:12 45.14133 -2.81060 40070 ft 449 kts 10°
2026-04-27 19:12 45.20182 -2.79133 40085 ft 447 kts
2026-04-27 19:13 45.26284 -2.77188 40083 ft 447 kts
2026-04-27 19:13 45.32333 -2.75257 40081 ft 446 kts
2026-04-27 19:14 45.38372 -2.73324 40076 ft 445 kts
2026-04-27 19:14 45.44426 -2.71382 40091 ft 447 kts
2026-04-27 19:15 45.50470 -2.69437 40088 ft 446 kts
2026-04-27 19:15 45.56506 -2.67489 40088 ft 446 kts
2026-04-27 19:16 45.62540 -2.65539 40092 ft 446 kts
2026-04-27 19:16 45.68556 -2.63591 40102 ft 444 kts
2026-04-27 19:17 45.74587 -2.61635 40103 ft 443 kts
2026-04-27 19:17 45.80600 -2.59680 40097 ft 443 kts
2026-04-27 19:18 45.86597 -2.57726 40095 ft 443 kts
2026-04-27 19:18 45.92576 -2.55774 40107 ft 443 kts 10°
2026-04-27 19:19 45.98591 -2.53804 40115 ft 444 kts 10°
2026-04-27 19:19 46.04594 -2.51833 40103 ft 442 kts
2026-04-27 19:20 46.10560 -2.49871 40110 ft 443 kts 10°
2026-04-27 19:20 46.16550 -2.47909 40111 ft 442 kts
2026-04-27 19:21 46.22587 -2.46529 40108 ft 440 kts
2026-04-27 19:21 46.28675 -2.45622 40112 ft 440 kts
2026-04-27 19:22 46.34764 -2.44747 40105 ft 440 kts
2026-04-27 19:22 46.40843 -2.43826 40114 ft 440 kts
2026-04-27 19:23 46.46940 -2.42733 40108 ft 440 kts
2026-04-27 19:23 46.52779 -2.39992 40120 ft 447 kts 22°
2026-04-27 19:24 46.58255 -2.35709 40115 ft 448 kts 27°
2026-04-27 19:24 46.63605 -2.31138 40118 ft 448 kts 28°
2026-04-27 19:25 46.68979 -2.26549 40117 ft 447 kts 28°
2026-04-27 19:25 46.74342 -2.22017 40112 ft 447 kts 28°
2026-04-27 19:26 46.79736 -2.17491 40111 ft 447 kts 28°
2026-04-27 19:26 46.85123 -2.12980 40122 ft 447 kts 27°
2026-04-27 19:27 46.90555 -2.08448 40111 ft 447 kts 26°
2026-04-27 19:27 46.96091 -2.04349 40113 ft 446 kts 23°
2026-04-27 19:28 47.01868 -2.01282 40112 ft 443 kts 12°
2026-04-27 19:28 47.07890 -1.99473 40118 ft 440 kts
2026-04-27 19:29 47.13923 -1.97998 40117 ft 438 kts
2026-04-27 19:29 47.19917 -1.96567 40115 ft 439 kts
2026-04-27 19:30 47.25970 -1.95095 40117 ft 440 kts
2026-04-27 19:30 47.31969 -1.93658 40123 ft 440 kts
2026-04-27 19:31 47.38065 -1.93124 40120 ft 437 kts 356°
2026-04-27 19:31 47.44088 -1.93624 40129 ft 436 kts 353°
2026-04-27 19:32 47.50110 -1.94357 40122 ft 435 kts 353°
2026-04-27 19:32 47.56152 -1.95077 40130 ft 435 kts 353°
2026-04-27 19:33 47.62190 -1.95584 40135 ft 436 kts 358°
2026-04-27 19:33 47.68192 -1.94222 40141 ft 441 kts 13°
2026-04-27 19:34 47.74015 -1.91396 40142 ft 443 kts 17°
2026-04-27 19:34 47.79802 -1.88306 40142 ft 443 kts 18°
2026-04-27 19:35 47.85601 -1.85228 40144 ft 444 kts 17°
2026-04-27 19:35 47.91390 -1.82204 40149 ft 443 kts 17°
2026-04-27 19:36 47.97164 -1.79215 40151 ft 442 kts 17°
2026-04-27 19:36 48.02992 -1.76240 40150 ft 442 kts 15°
2026-04-27 19:37 48.08926 -1.74242 40155 ft 437 kts
2026-04-27 19:37 48.14990 -1.73943 40156 ft 434 kts 356°
2026-04-27 19:38 48.20982 -1.74122 40160 ft 434 kts 356°
2026-04-27 19:38 48.27000 -1.74313 40157 ft 435 kts 356°
2026-04-27 19:39 48.33035 -1.74445 40160 ft 434 kts 356°
2026-04-27 19:39 48.39069 -1.74541 40165 ft 434 kts 356°
2026-04-27 19:40 48.45101 -1.74622 40165 ft 433 kts 356°
2026-04-27 19:40 48.51125 -1.74699 40164 ft 434 kts 356°
2026-04-27 19:41 48.57177 -1.74776 40173 ft 434 kts 356°
2026-04-27 19:41 48.63222 -1.74850 40177 ft 432 kts 356°
2026-04-27 19:42 48.69230 -1.74922 39604 ft 434 kts 356°
2026-04-27 19:42 48.72267 -1.74964 38606 ft 455 kts 356°
2026-04-27 19:42 48.75520 -1.75013 37926 ft 471 kts 357°
2026-04-27 19:42 48.78744 -1.75055 37391 ft 464 kts 357°
2026-04-27 19:43 48.81983 -1.75092 36781 ft 459 kts 357°
2026-04-27 19:43 48.85130 -1.75127 36182 ft 455 kts 358°
2026-04-27 19:43 48.88262 -1.75162 35680 ft 453 kts 358°
2026-04-27 19:43 48.91402 -1.75196 35187 ft 449 kts 358°
2026-04-27 19:44 48.94481 -1.75173 34653 ft 447 kts 359°
2026-04-27 19:44 48.97584 -1.75077 34059 ft 443 kts
2026-04-27 19:44 49.00652 -1.74945 33510 ft 437 kts
2026-04-27 19:44 49.03637 -1.74806 32985 ft 431 kts
2026-04-27 19:45 49.06596 -1.74669 32473 ft 425 kts
2026-04-27 19:45 49.09544 -1.74537 31960 ft 418 kts
2026-04-27 19:45 49.12436 -1.74411 31463 ft 412 kts
2026-04-27 19:45 49.15243 -1.74293 30975 ft 405 kts
2026-04-27 19:46 49.18050 -1.74178 30460 ft 399 kts
2026-04-27 19:46 49.20781 -1.74069 29966 ft 391 kts
2026-04-27 19:46 49.23458 -1.73963 29496 ft 384 kts
2026-04-27 19:46 49.26103 -1.73859 29030 ft 377 kts
2026-04-27 19:47 49.28673 -1.73760 28573 ft 370 kts
2026-04-27 19:47 49.31231 -1.73661 28125 ft 363 kts
2026-04-27 19:47 49.33736 -1.73564 27694 ft 357 kts
2026-04-27 19:47 49.36183 -1.73468 27267 ft 351 kts
2026-04-27 19:48 49.38580 -1.73375 26842 ft 345 kts
2026-04-27 19:48 49.40958 -1.73283 26408 ft 340 kts
2026-04-27 19:48 49.43295 -1.73191 25988 ft 335 kts
2026-04-27 19:48 49.45613 -1.73101 25570 ft 330 kts
2026-04-27 19:49 49.47887 -1.73013 25166 ft 325 kts
2026-04-27 19:49 49.50105 -1.72928 24775 ft 321 kts
2026-04-27 19:49 49.52344 -1.72843 24386 ft 324 kts 360°
2026-04-27 19:49 49.54639 -1.72755 23965 ft 339 kts 360°
2026-04-27 19:50 49.57025 -1.72664 23534 ft 343 kts 360°
2026-04-27 19:50 49.59391 -1.72571 23117 ft 338 kts
2026-04-27 19:50 49.61689 -1.72444 22715 ft 333 kts
2026-04-27 19:50 49.63991 -1.72258 22299 ft 328 kts
2026-04-27 19:51 49.66261 -1.72049 21892 ft 324 kts
2026-04-27 19:51 49.68490 -1.71843 21487 ft 319 kts
2026-04-27 19:51 49.70660 -1.71648 21096 ft 315 kts
2026-04-27 19:51 49.72828 -1.71458 20699 ft 311 kts
2026-04-27 19:52 49.74977 -1.71272 20320 ft 307 kts
2026-04-27 19:52 49.77089 -1.71092 19931 ft 304 kts
2026-04-27 19:52 49.79204 -1.70913 19533 ft 300 kts
2026-04-27 19:52 49.81271 -1.70738 19161 ft 302 kts 360°
2026-04-27 19:53 49.85600 -1.70380 18375 ft 317 kts 360°
2026-04-27 19:53 49.87775 -1.70193 17984 ft 312 kts
2026-04-27 19:53 49.89916 -1.70009 17587 ft 308 kts
2026-04-27 19:54 49.92031 -1.69827 17207 ft 303 kts
2026-04-27 19:54 49.94122 -1.69648 16826 ft 300 kts
2026-04-27 19:54 49.96181 -1.69472 16438 ft 296 kts 360°
2026-04-27 19:54 49.98216 -1.69288 16066 ft 293 kts
2026-04-27 19:55 50.00233 -1.68929 15677 ft 291 kts
2026-04-27 19:55 50.02192 -1.68215 15315 ft 289 kts 12°
2026-04-27 19:55 50.04101 -1.67297 14937 ft 287 kts 14°
2026-04-27 19:55 50.05990 -1.66329 14570 ft 284 kts 14°
2026-04-27 19:56 50.07859 -1.65381 14208 ft 281 kts 14°
2026-04-27 19:56 50.09743 -1.64448 13857 ft 290 kts 14°
2026-04-27 19:56 50.11699 -1.63499 13482 ft 297 kts 14°
2026-04-27 19:56 50.13653 -1.62552 13106 ft 293 kts 14°
2026-04-27 19:57 50.15570 -1.61619 12732 ft 290 kts 14°
2026-04-27 19:57 50.17473 -1.60693 12363 ft 286 kts 14°
2026-04-27 19:57 50.19367 -1.59771 11997 ft 282 kts 14°
2026-04-27 19:57 50.21231 -1.58865 11634 ft 279 kts 14°
2026-04-27 19:58 50.23071 -1.57972 11277 ft 275 kts 14°
2026-04-27 19:58 50.24863 -1.57107 10930 ft 272 kts 14°
2026-04-27 19:58 50.26705 -1.56498 10575 ft 266 kts
2026-04-27 19:58 50.28500 -1.56818 10291 ft 258 kts 344°
2026-04-27 19:59 50.30176 -1.57621 10151 ft 247 kts 341°
2026-04-27 19:59 50.31790 -1.58432 9881 ft 243 kts 342°
2026-04-27 19:59 50.33414 -1.59192 9542 ft 248 kts 343°
2026-04-27 19:59 50.35110 -1.59946 9222 ft 258 kts 343°
2026-04-27 20:00 50.36813 -1.60694 8901 ft 255 kts 344°
2026-04-27 20:00 50.38524 -1.61443 8586 ft 251 kts 344°
2026-04-27 20:00 50.40176 -1.62168 8281 ft 247 kts 344°
2026-04-27 20:00 50.41827 -1.62892 7976 ft 243 kts 345°
2026-04-27 20:01 50.43433 -1.63594 7662 ft 240 kts 345°
2026-04-27 20:01 50.45020 -1.64278 7471 ft 232 kts 345°
2026-04-27 20:01 50.46538 -1.64949 7395 ft 220 kts 344°
2026-04-27 20:01 50.47961 -1.65584 7334 ft 208 kts 345°
2026-04-27 20:02 50.49327 -1.66138 7269 ft 204 kts 351°
2026-04-27 20:02 50.50793 -1.66032 7081 ft 219 kts 16°
2026-04-27 20:02 50.52172 -1.65040 6986 ft 215 kts 25°
2026-04-27 20:02 50.53495 -1.63997 6976 ft 217 kts 23°
2026-04-27 20:03 50.54876 -1.62989 6980 ft 217 kts 22°
2026-04-27 20:03 50.56253 -1.62016 6973 ft 216 kts 22°
2026-04-27 20:03 50.57622 -1.61057 6985 ft 217 kts 21°
2026-04-27 20:03 50.58998 -1.60102 6970 ft 216 kts 21°
2026-04-27 20:04 50.60366 -1.59150 6980 ft 216 kts 22°
2026-04-27 20:04 50.61738 -1.58193 6976 ft 217 kts 22°
2026-04-27 20:04 50.63128 -1.57225 6973 ft 216 kts 22°
2026-04-27 20:04 50.64479 -1.56279 6965 ft 211 kts 22°
2026-04-27 20:05 50.65771 -1.55370 6973 ft 194 kts 21°
2026-04-27 20:05 50.66959 -1.54523 6949 ft 179 kts 22°
2026-04-27 20:05 50.68063 -1.53696 6756 ft 176 kts 23°
2026-04-27 20:05 50.69155 -1.52856 6502 ft 176 kts 23°
2026-04-27 20:06 50.70260 -1.52008 6250 ft 174 kts 23°
2026-04-27 20:06 50.71337 -1.51170 6005 ft 173 kts 24°
2026-04-27 20:06 50.72368 -1.50259 5737 ft 173 kts 35°
2026-04-27 20:06 50.73281 -1.48999 5434 ft 173 kts 38°
2026-04-27 20:07 50.74229 -1.47896 5153 ft 170 kts 28°
2026-04-27 20:07 50.75275 -1.47045 4880 ft 167 kts 23°
2026-04-27 20:07 50.76340 -1.46314 4601 ft 166 kts 21°
2026-04-27 20:07 50.77399 -1.45643 4303 ft 165 kts 20°
2026-04-27 20:08 50.78460 -1.45006 4015 ft 163 kts 20°
2026-04-27 20:08 50.79519 -1.44387 3724 ft 162 kts 20°
2026-04-27 20:08 50.80579 -1.43779 3439 ft 161 kts 20°
2026-04-27 20:08 50.81621 -1.43188 3148 ft 160 kts 20°
2026-04-27 20:09 50.82661 -1.42601 2870 ft 158 kts 20°
2026-04-27 20:09 50.83698 -1.42018 2586 ft 157 kts 20°
2026-04-27 20:09 50.84712 -1.41455 2450 ft 150 kts 19°
2026-04-27 20:09 50.85676 -1.40935 2218 ft 142 kts 20°
2026-04-27 20:10 50.86581 -1.40435 1976 ft 134 kts 21°
2026-04-27 20:10 50.87428 -1.39948 1690 ft 128 kts 21°
2026-04-27 20:10 50.88242 -1.39486 1426 ft 120 kts 20°
2026-04-27 20:10 50.89019 -1.39046 1163 ft 119 kts 20°
2026-04-27 20:11 50.89798 -1.38612 979 ft 119 kts 19°
2026-04-27 20:11 50.90586 -1.38156 907 ft 122 kts 21°
2026-04-27 20:11 50.91404 -1.37689 762 ft 125 kts 19°
2026-04-27 20:11 50.92220 -1.37244 597 ft 127 kts 19°
2026-04-27 20:12 50.93053 -1.36772 429 ft 127 kts 18°
2026-04-27 20:12 50.93905 -1.36308 211 ft 130 kts 19°
2026-04-27 20:12 50.94758 -1.35828 47 ft 126 kts 18°
2026-04-27 20:12 50.95427 -1.35457 48 ft 72 kts 19°
2026-04-27 20:13 50.95686 -1.35312 49 ft 11 kts 19°
2026-04-27 20:13 50.95711 -1.35329 49 ft 10 kts 191°
2026-04-27 20:13 50.95637 -1.35352 49 ft 10 kts 191°
2026-04-27 20:13 50.95562 -1.35378 48 ft 11 kts 198°
2026-04-27 20:14 50.95476 -1.35430 48 ft 15 kts 200°
2026-04-27 20:14 50.95362 -1.35493 47 ft 23 kts 199°
2026-04-27 20:14 50.95204 -1.35581 46 ft 24 kts 199°
2026-04-27 20:14 50.95073 -1.35654 44 ft 13 kts 198°
2026-04-27 20:15 50.95019 -1.35712 44 ft 9 kts 262°
2026-04-27 20:15 50.95038 -1.35808 44 ft 9 kts 289°
2026-04-27 20:15 50.95057 -1.35901 44 ft 9 kts 282°
2026-04-27 20:15 50.95070 -1.35986 44 ft 2 kts 289°
2026-04-27 20:16 50.95074 -1.36001 44 ft 0 kts 289°